Terminal Aerodrome Forecast
Issued by NWS

Home | Current Version | Previous Version | Text Only | Print | Product List | Glossary On
Versions: 1 2 3 4 5 6 7 8 9 10 11 12 13 14
000
FTUS46 KMTR 032300
TAFOAK
TAF
KOAK 032334Z 0400/0506 29015KT P6SM FEW015
     FM040400 29010KT P6SM SCT015
     FM040600 29006KT P6SM OVC015
     FM042100 28012KT P6SM SCT020
     FM050400 28008KT P6SM BKN015=

USA.gov is the U.S. government's official web portal to all federal, state and local government web resources and services.